[[{"header":{"parameterUnit":"m.s-1","parameterCategory":1,"la1":30.2991,"la2":30.254,"lo1":-89.0895,"lo2":-89.0444,"dy":0.0017,"dx":0.0017,"nx":28,"ny":28,"refTime":"2024-06-17T03:00:00:Z","depth":0,"parameterNumber":2,"parameterNumberName":"U-component_of_WINDS"},"data":[0,0,0,0,0,0,0,0,0,0,0,0,0,0,0,0,0,0,0,0,0,0,0,0,0,0,0,0,0,0,0,0,0,0,0,0,0,0,0,0,0,0,0,0,0,0,0,0,0,0,0,0,0,0,0,0,0,0,-11.8349,-11.8349,0,-11.8351,-11.8351,-11.8351,-11.8111,-11.8105,-11.8098,-11.8092,-11.8093,-11.8099,-11.8105,0,0,0,0,0,0,0,0,0,0,0,0,0,-11.8137,-11.8142,-11.8349,-11.8349,-11.8349,-11.8351,-11.8351,-11.8351,-11.8112,-11.8104,-11.8097,-11.8089,-11.8091,-11.8098,-11.8105,0,0,0,0,0,0,0,0,0,0,0,0,0,-11.8193,-11.8144,-11.8349,-11.823,-11.822,-11.8351,-11.8351,-11.8351,-11.8114,-11.8104,-11.8095,-11.8086,-11.8089,-11.8097,-11.8106,-11.8351,0,0,-11.8133,-11.8137,0,0,0,0,0,0,0,0,-11.819,-11.8201,-11.8248,-11.8239,-11.8227,-11.8221,-11.8276,-11.8351,-11.8116,-11.8154,-11.8092,-11.8081,-11.8143,-11.8147,-11.8168,-11.8351,-11.8351,-11.8134,-11.814,-11.8143,-11.8146,0,0,0,0,0,0,0,-11.8187,-11.82,-11.835,-11.8249,-11.8236,-11.8176,-11.8174,-11.8289,-11.8202,-11.815,-11.8132,-11.8136,-11.8136,-11.816,-11.8166,-11.8351,-11.8134,-11.8142,-11.8147,-11.8151,-11.8732,-11.8742,0,0,0,0,0,0,-11.8199,-11.8198,-11.835,-11.835,-11.8185,-11.8188,-11.8185,-11.8233,-11.82,-11.8186,-11.8144,-11.8125,-11.815,-11.8156,-11.8166,-11.8446,-11.8143,-11.8152,-11.8157,-11.8722,-11.8734,-11.8745,0,0,0,0,0,0,-11.8196,-11.8215,-11.835,-11.8269,-11.8282,-11.8202,-11.8257,-11.8238,-11.8261,-11.8196,-11.8179,-11.8185,-11.8143,-11.8153,-11.8306,-11.8443,-11.8156,-11.8164,-11.871,-11.8726,-11.874,-11.9013,0,0,0,0,0,0,-11.8191,-11.8215,-11.8308,-11.8273,-11.8287,-11.8491,-11.8266,-11.8245,-11.8278,-11.8253,-11.823,-11.8217,-11.8136,-11.8294,-11.8315,-11.845,-11.8171,-11.8697,-11.8717,-11.8735,-11.8991,-11.9035,-11.9073,0,0,0,0,0,-11.8184,-11.8385,-11.8314,-11.8333,-11.8401,-11.85,-11.8507,-11.8411,-11.829,-11.8381,-11.8339,-11.8217,-11.8427,-11.8312,-11.8333,-11.8473,-11.8688,-11.8711,-11.8734,-11.8972,-11.9027,-11.9072,0,0,0,0,0,0,-11.8437,-11.8378,-11.8298,-11.8495,-11.8504,-11.8459,-11.8571,-11.8472,-11.8515,-11.849,-11.8368,-11.8365,-11.8536,-11.8521,-11.8394,-11.8707,-11.8535,-11.8564,-11.871,-11.8761,-11.8801,-11.8799,-11.8178,0,0,0,0,0,-11.8517,-11.8602,-11.8546,-11.8724,-11.8733,-11.8653,-11.8692,-11.8617,-11.8621,-11.8624,-11.8592,-11.8601,-11.8668,-11.8714,-11.8773,-11.899,-11.8979,-11.9097,-11.9138,-11.9172,-11.9196,-11.9306,-11.9356,-11.882,-11.882,-11.8819,0,0,-11.868,-11.8658,-11.8719,-11.8775,-11.8773,-11.8862,-11.8657,-11.8762,-11.8826,-11.8639,-11.878,-11.8759,-11.876,-11.8946,-11.9026,-11.8938,-11.9343,-11.9201,-11.9229,-11.9234,-11.9334,-11.9385,-11.943,-11.8835,-11.8833,-11.883,0,0,-11.9021,-11.9017,-11.9162,-11.9165,-11.9165,-11.911,-11.9147,-11.9117,-11.9095,-11.9235,-11.9096,-11.9172,-11.9291,-11.9297,-11.9315,-11.9662,-11.955,-11.9685,-11.9898,-12.0006,-12.0048,-12.0085,-12.0204,-12.0249,-11.971,-11.9711,-11.9712,0,-11.9224,-11.9354,-11.925,-11.9363,-11.939,-11.9227,-11.9372,-11.938,-11.94,-11.9422,-11.9325,-11.9469,-11.9459,-11.9641,-11.9726,-11.9749,-11.9783,-11.9684,-12.0051,-12.0087,-12.0119,-12.0231,-12.0277,-11.9727,-11.9725,-11.9724,-11.9722,0,-11.96,-11.9693,-11.9811,-11.9833,-11.9875,-12.0004,-11.9919,-11.9973,-11.9896,-11.9852,-11.9996,-11.9979,-12.0029,-12.0068,-11.9994,-12.024,-12.0185,-12.0073,-11.9896,-12.0188,-12.0291,-12.0333,-11.975,-11.9744,-11.9739,-11.9735,0,0,-12.0097,-12.0062,-12.0106,-12.0113,-12.0102,-12.0171,-12.0294,-12.0343,-12.039,-12.0411,-12.0508,-12.0614,-12.0508,-12.053,-12.0455,-12.0552,-12.0822,-12.0425,-12.0423,-12.0495,-12.1087,-12.1168,-12.122,-12.0751,-12.0759,-12.0765,-12.1085,0,-12.0424,-12.0628,-12.0539,-12.0752,-12.0835,-12.0682,-12.0788,-12.0793,-12.0756,-12.082,-12.0778,-12.0853,-12.0711,-12.0722,-12.0812,-12.077,-12.0938,-12.0747,-12.0836,-12.084,-12.0834,-12.1274,-12.136,-12.1663,-12.1125,-12.1132,-12.1137,0,-12.0831,-12.0868,-12.1089,-12.1062,-12.1093,-12.119,-12.1227,-12.1292,-12.1294,-12.126,-12.1286,-12.1189,-12.1305,-12.1136,-12.1293,-12.1165,-12.1197,-12.1183,-12.1192,-12.1191,-12.1002,-12.128,-12.1758,-12.1802,-12.12,-12.1195,-12.1191,0,-12.1165,-12.127,-12.1415,-12.1427,-12.14,-12.1471,-12.1463,-12.1456,-12.1491,-12.1525,-12.1546,-12.1594,-12.1619,-12.1658,-12.1577,-12.1462,-12.1744,-12.1568,-12.1716,-12.1718,-12.1777,-12.1773,-12.2261,-12.1809,-12.1809,-12.1808,-12.1807,0,-12.1535,-12.1675,-12.1563,-12.1652,-12.1805,-12.1702,-12.1855,-12.1831,-12.1826,-12.1906,-12.178,-12.1858,-12.1749,-12.1817,-12.1755,-12.1892,-12.1906,-12.188,-12.186,-12.1888,-12.189,-12.1902,-12.1877,-12.182,-12.1817,-12.1815,-12.1813,0,-12.193,-12.1862,-12.2009,-12.1972,-12.1967,-12.208,-12.2048,-12.2128,-12.2083,-12.2187,-12.2205,-12.2135,-12.2208,-12.2132,-12.2201,-12.2159,-12.2342,-12.2295,-12.2341,-12.2325,-12.2475,-12.246,-12.2982,-12.3044,-12.2559,-12.2564,-12.2568,0,-12.2168,-12.2272,-12.2247,-12.2292,-12.2291,-12.2366,-12.2401,-12.2305,-12.2346,-12.2357,-12.2436,-12.2498,-12.2542,-12.2666,-12.262,-12.2672,-12.2621,-12.2801,-12.2628,-12.2651,-12.2617,-12.2609,-12.2617,-12.2834,-12.284,-12.2845,-12.2849,0,-12.2596,-12.2557,-12.2612,-12.2657,-12.2702,-12.2732,-12.2753,-12.2797,-12.2697,-12.2751,-12.2823,-12.2858,-12.2928,-12.299,-12.3028,-12.3019,-12.2917,-12.2905,-12.294,-12.2966,-12.2986,-12.2971,-12.243,-12.2891,-12.2887,-12.2884,-12.2882,-12.288,-12.2915,-12.2999,-12.2994,-12.3059,-12.3065,-12.3087,-12.3159,-12.3124,-12.3183,-12.3231,-12.3173,-12.3262,-12.3261,-12.3301,-12.3305,-12.3372,-12.3296,-12.3349,-12.3361,-12.3374,-12.3394,-12.2981,-12.338,-12.3378,-12.3377,-12.3376,-12.3375,0,-12.3331,-12.332,-12.3382,-12.3414,-12.3466,-12.3368,-12.3386,-12.3435,-12.3515,-12.3523,-12.3569,-12.3652,-12.3713,-12.3674,-12.3724,-12.3786,-12.374,-12.3802,-12.3793,-12.3792,-12.3462,-12.3423,-12.3838,-12.3838,-12.3838,-12.3838,-12.3838,-12.3837,-12.3552,-12.3688,-12.3649,-12.3786,-12.3774,-12.386,-12.3878,-12.3897,-12.3903,-12.4001,-12.405,-12.4025,-12.4014,-12.4063,-12.4113,-12.41,-12.4122,-12.42,-12.417,-12.3861,-12.3816,-12.3772,-12.3734,-12.4208,-12.4208,-12.4493,-12.4496,-12.4498]},{"header":{"parameterUnit":"m.s-1","parameterCategory":1,"la1":30.2991,"la2":30.254,"lo1":-89.0895,"lo2":-89.0444,"dy":0.0017,"dx":0.0017,"nx":28,"ny":28,"refTime":"2024-06-17T03:00:00:Z","depth":0,"parameterNumber":3,"parameterNumberName":"V-component_of_WINDS"},"data":[0,0,0,0,0,0,0,0,0,0,0,0,0,0,0,0,0,0,0,0,0,0,0,0,0,0,0,0,0,0,0,0,0,0,0,0,0,0,0,0,0,0,0,0,0,0,0,0,0,0,0,0,0,0,0,0,0,0,1.6841,1.6843,0,1.696,1.6961,1.6962,1.7002,1.7001,1.7001,1.7,1.7118,1.7121,1.7125,0,0,0,0,0,0,0,0,0,0,0,0,0,1.6648,1.6651,1.6841,1.6843,1.6844,1.6959,1.6961,1.6963,1.7002,1.7001,1.7001,1.7,1.7117,1.7121,1.7125,0,0,0,0,0,0,0,0,0,0,0,0,0,1.6745,1.6652,1.6841,1.6878,1.6882,1.6959,1.6961,1.6963,1.7002,1.7001,1.7,1.7,1.7115,1.7121,1.7126,1.7174,0,0,1.7142,1.7145,0,0,0,0,0,0,0,0,1.674,1.6752,1.6871,1.6875,1.6881,1.6965,1.6936,1.7034,1.7002,1.6956,1.7,1.6999,1.7067,1.7077,1.71,1.7179,1.7184,1.7143,1.7146,1.7148,1.715,0,0,0,0,0,0,0,1.6733,1.6748,1.6888,1.6873,1.6878,1.6888,1.6901,1.6955,1.7014,1.696,1.6963,1.6977,1.707,1.7095,1.7103,1.7186,1.7143,1.7147,1.7151,1.7153,1.7312,1.7313,0,0,0,0,0,0,1.672,1.6742,1.6884,1.6892,1.6807,1.6892,1.6907,1.6939,1.7014,1.7025,1.6978,1.6978,1.7086,1.7097,1.7108,1.717,1.7148,1.7153,1.7156,1.7311,1.7313,1.7314,0,0,0,0,0,0,1.6716,1.6733,1.688,1.6818,1.6837,1.6896,1.6932,1.6941,1.6967,1.7027,1.7038,1.6992,1.7086,1.71,1.7158,1.7175,1.7156,1.7161,1.731,1.7312,1.7313,1.7294,0,0,0,0,0,0,1.671,1.6731,1.675,1.6818,1.684,1.6928,1.6933,1.6944,1.6976,1.6979,1.7044,1.7054,1.7087,1.715,1.7163,1.7182,1.7165,1.7309,1.7311,1.7313,1.7294,1.7295,1.7296,0,0,0,0,0,1.6703,1.6739,1.6751,1.6768,1.6865,1.6929,1.6942,1.6979,1.6977,1.6997,1.7036,1.7052,1.7171,1.7155,1.7171,1.7191,1.7308,1.731,1.7313,1.7293,1.7295,1.7296,0,0,0,0,0,0,1.6669,1.6748,1.6762,1.6821,1.6868,1.6935,1.6961,1.698,1.7027,1.7027,1.7071,1.7086,1.714,1.7172,1.7153,1.7243,1.724,1.7246,1.722,1.7222,1.7223,1.7214,1.7169,0,0,0,0,0,1.6669,1.6715,1.6781,1.6826,1.6849,1.6901,1.693,1.6956,1.7006,1.7025,1.7069,1.7116,1.7165,1.7195,1.7243,1.7299,1.7314,1.7321,1.7322,1.7323,1.7327,1.736,1.7364,1.7321,1.7321,1.7321,0,0,1.6668,1.6717,1.6743,1.6821,1.686,1.6906,1.6917,1.6965,1.7,1.7032,1.709,1.7124,1.718,1.7237,1.7264,1.7265,1.7342,1.7326,1.7326,1.733,1.7363,1.7367,1.737,1.7323,1.7323,1.7322,0,0,1.669,1.6731,1.6775,1.6815,1.6875,1.691,1.692,1.6986,1.701,1.7069,1.7095,1.7136,1.7218,1.7258,1.7288,1.7328,1.7344,1.7342,1.7348,1.738,1.7384,1.7387,1.7402,1.7407,1.7346,1.7346,1.7346,0,1.6681,1.6752,1.6794,1.6842,1.6875,1.6909,1.6953,1.699,1.7062,1.7084,1.7084,1.7189,1.7229,1.7297,1.7307,1.7331,1.7344,1.7334,1.738,1.7384,1.7387,1.7402,1.7407,1.7346,1.7346,1.7346,1.7346,0,1.6739,1.6788,1.6815,1.6887,1.6924,1.6969,1.7017,1.705,1.7073,1.7107,1.7168,1.7217,1.7276,1.7294,1.7316,1.7366,1.7364,1.7372,1.737,1.739,1.7405,1.7411,1.7345,1.7345,1.7345,1.7345,0,0,1.6741,1.6837,1.6846,1.688,1.695,1.6989,1.7036,1.7095,1.7123,1.7172,1.7213,1.7283,1.7291,1.7326,1.7352,1.7381,1.741,1.7385,1.7387,1.7388,1.7469,1.7463,1.7469,1.7422,1.7423,1.7424,1.7465,0,1.6772,1.6859,1.6899,1.6968,1.7015,1.7049,1.709,1.7138,1.7172,1.7216,1.7254,1.7303,1.7309,1.7331,1.736,1.74,1.7427,1.7398,1.746,1.7462,1.7445,1.7477,1.747,1.7506,1.7471,1.7472,1.7472,0,1.682,1.6872,1.6946,1.7013,1.7034,1.707,1.7129,1.7171,1.7226,1.7249,1.7289,1.7316,1.7367,1.7363,1.7434,1.7413,1.7441,1.7465,1.7468,1.7474,1.7468,1.7484,1.7518,1.7523,1.7482,1.7481,1.748,0,1.6815,1.6903,1.6959,1.6987,1.7066,1.7091,1.7125,1.718,1.7214,1.7265,1.7287,1.7343,1.7373,1.7416,1.7457,1.745,1.7525,1.7523,1.7545,1.7544,1.7559,1.7557,1.7597,1.7577,1.7577,1.7577,1.7576,0,1.6846,1.689,1.6958,1.6993,1.7044,1.709,1.7138,1.7175,1.7224,1.7266,1.7298,1.7337,1.7388,1.7434,1.7466,1.7521,1.7534,1.7554,1.7562,1.7551,1.7549,1.757,1.7568,1.7578,1.7578,1.7577,1.7577,0,1.6848,1.6896,1.696,1.703,1.7049,1.7084,1.7144,1.7179,1.7216,1.7269,1.7284,1.7341,1.7396,1.7442,1.7513,1.7535,1.7593,1.7602,1.7574,1.7578,1.7598,1.7595,1.7653,1.7663,1.7635,1.7635,1.7636,0,1.6865,1.69,1.6975,1.7007,1.7041,1.709,1.7126,1.7173,1.7208,1.7275,1.7302,1.736,1.7409,1.7496,1.7543,1.7599,1.7609,1.7626,1.7618,1.7606,1.761,1.7607,1.7612,1.7626,1.7626,1.7626,1.7626,0,1.6889,1.6912,1.6962,1.7021,1.7063,1.7111,1.7161,1.7184,1.724,1.7278,1.7336,1.7374,1.7449,1.7506,1.7568,1.7602,1.7624,1.7629,1.7637,1.7626,1.7609,1.7619,1.7576,1.7627,1.7627,1.7627,1.7627,1.7627,1.69,1.6933,1.6992,1.7047,1.709,1.7136,1.7173,1.7215,1.7264,1.733,1.7355,1.7414,1.747,1.7554,1.759,1.7637,1.7639,1.765,1.7653,1.7655,1.7654,1.7602,1.7648,1.7648,1.7648,1.7648,1.7648,0,1.6926,1.6966,1.7017,1.7086,1.713,1.7148,1.7204,1.7239,1.7292,1.7343,1.7391,1.7458,1.7514,1.7567,1.7626,1.7654,1.7665,1.7667,1.7666,1.7674,1.7648,1.7636,1.7657,1.7657,1.7657,1.7657,1.7657,1.7657,1.6945,1.7003,1.7033,1.7113,1.7152,1.7212,1.7243,1.7285,1.7326,1.74,1.7448,1.7483,1.7535,1.7598,1.7651,1.7665,1.7685,1.7685,1.7701,1.7677,1.7675,1.7674,1.7662,1.7689,1.7689,1.7723,1.7723,1.7723]}]]